Weather History for Casper, WY

Change the Weather History Date:

Wednesday, November 28, 2012

  Actual Average Record
Temperature  
Mean Temperature 45 °F 27 °F  
Max Temperature 55 °F 38 °F 61 °F (1998)
Min Temperature 35 °F 17 °F -9 °F (1952)
Degree Days  
Heating Degree Days 20 38  
Month to date heating degree days 727 881  
Since 1 July heating degree days 1498 1780  
Cooling Degree Days 0 0  
Month to date cooling degree days 0 0  
Year to date cooling degree days 697 422  
Moisture  
Dew Point 16 °F    
Average Humidity 36    
Maximum Humidity 52    
Minimum Humidity 20    
Precipitation  
Precipitation 0.00 in 0.02 in 0.24 in (1975)
Month to date precipitation 0.49 0.72  
Year to date precipitation 7.49 11.99  
Snow  
Snow 0.00 in 0.30 in - ()
Month to date snowfall 7.5 9.6  
Since 1 July snowfall 12.7 18.8  
Since 1 September snowfall 12.7 18.8  
Snow Depth 0.00 in    
Sea Level Pressure  
Sea Level Pressure 30.05 in    
Wind  
Wind Speed 17 mph (SW)    
Max Wind Speed 28 mph    
Max Gust Speed 33 mph    
Visibility 10 miles    
Events      
T = Trace of Precipitation, MM = Missing Value Source: NWS Daily Summary

Daily Weather History Graph

Daily Weather History Graph

Search for Another Location

Airport:

Trip Planner

Search our weather history database for the weather conditions in past years. The results will help you decide how hot, cold, wet, or windy it might be!

Date:

Astronomy

Nov. 28, 2012 Rise Set
Actual Time 7:14 AM MST 4:33 PM MST
Civil Twilight 6:42 AM MST 5:05 PM MST
Nautical Twilight 6:07 AM MST 5:40 PM MST
Astronomical Twilight 5:33 AM MST 6:14 PM MST
Moon 4:50 PM MST (11/28) 7:14 AM MST (11/28)
Length of Visible Light 10h 22m
Length of Day
9h 19m
Full, 100% of the Moon is Illuminated
Nov 28
Full
Dec 6
Last Quarter
Dec 13
New
Dec 19
First Quarter
Dec 28
Full

Hourly Weather History & Observations

Time (MST) Temp. Windchill Dew Point Humidity Pressure Visibility Wind Dir Wind Speed Gust Speed Precip Events Conditions
12:53 AM 39.0 °F 32.8 °F 17.1 °F 41% 30.14 in 10.0 mi SW 9.2 mph - N/A   Clear
1:53 AM 39.9 °F - 16.0 °F 38% 30.12 in 10.0 mi North - - N/A   Clear
2:53 AM 39.0 °F 31.0 °F 16.0 °F 39% 30.11 in 10.0 mi SW 13.8 mph - N/A   Clear
3:53 AM 39.0 °F 29.0 °F 15.1 °F 38% 30.11 in 10.0 mi SW 20.7 mph 29.9 mph N/A   Clear
4:53 AM 39.0 °F 29.6 °F 14.0 °F 36% 30.13 in 10.0 mi SW 18.4 mph 27.6 mph N/A   Clear
5:53 AM 37.9 °F 28.2 °F 15.1 °F 39% 30.15 in 10.0 mi SW 18.4 mph - N/A   Clear
6:53 AM 37.9 °F 28.9 °F 14.0 °F 38% 30.16 in 10.0 mi SW 16.1 mph - N/A   Clear
7:53 AM 39.0 °F 30.6 °F 14.0 °F 36% 30.17 in 10.0 mi SW 15.0 mph - N/A   Clear
8:53 AM 42.1 °F 33.3 °F 14.0 °F 32% 30.13 in 10.0 mi SW 19.6 mph 25.3 mph N/A   Clear
9:53 AM 46.0 °F 38.0 °F 14.0 °F 28% 30.09 in 10.0 mi SW 21.9 mph 28.8 mph N/A   Clear
10:53 AM 50.0 °F - 15.1 °F 25% 30.08 in 10.0 mi SW 23.0 mph 29.9 mph N/A   Clear
11:53 AM 52.0 °F - 15.1 °F 23% 30.06 in 10.0 mi SW 23.0 mph 29.9 mph N/A   Clear
12:53 PM 55.0 °F - 16.0 °F 22% 30.02 in 10.0 mi SW 25.3 mph 33.4 mph N/A   Clear
1:53 PM 55.0 °F - 15.1 °F 21% 29.99 in 10.0 mi SW 23.0 mph 28.8 mph N/A   Clear
2:53 PM 55.0 °F - 15.1 °F 21% 29.98 in 10.0 mi SSW 20.7 mph - N/A   Clear
3:53 PM 51.1 °F - 17.1 °F 26% 29.99 in 10.0 mi SSW 12.7 mph - N/A   Clear
4:53 PM 45.0 °F 39.3 °F 17.1 °F 33% 30.00 in 10.0 mi SW 11.5 mph - N/A   Clear
5:53 PM 44.1 °F 39.0 °F 16.0 °F 32% 30.00 in 10.0 mi SW 9.2 mph - N/A   Clear
6:53 PM 44.1 °F 42.5 °F 15.1 °F 31% 30.00 in 10.0 mi Variable 3.5 mph - N/A   Clear
7:53 PM 43.0 °F 37.2 °F 16.0 °F 34% 30.00 in 10.0 mi SW 10.4 mph - N/A   Clear
8:53 PM 45.0 °F 37.6 °F 16.0 °F 31% 29.97 in 10.0 mi SSW 17.3 mph - N/A   Clear
9:53 PM 46.0 °F 38.5 °F 16.0 °F 30% 29.94 in 10.0 mi SSW 19.6 mph 27.6 mph N/A   Clear
10:53 PM 44.1 °F 37.4 °F 18.0 °F 35% 29.93 in 10.0 mi SSW 13.8 mph - N/A   Clear
11:53 PM 43.0 °F 36.4 °F 18.0 °F 37% 29.92 in 10.0 mi SW 12.7 mph - N/A   Clear